Temp_Advection
nan nan nan nan nan nan nan nan nan nan nan nan nan nan nan nan nan nan nan nan nan nan nan nan nan nan nan nan nan nan nan nan nan nan nan nan nan nan nan nan nan nan nan nan nan nan nan nan nan nan nan nan nan nan nan nan nan nan nan nan nan nan nan nan nan nan nan nan nan
nan 0 0 -0 -0 -0 -0 -0 -0 -0 -0 -0 -0 -0 -0 -0 -0 -0 -0 -0 -0 -0 -0 -0 -0 -0 -0 0 0 0 0 0 0 0 0 0 0 0 0 0 0 0 0 0 0 0 0 0 0 0 0 0 -0 -0 0 0 0 0 0 0 0 1 1 1 0 0 1 0 nan
nan 0 0 0 -0 -0 -0 -0 -0 -0 -0 -0 -0 -0 -0 -0 -0 -0 -0 -0 0 -0 -0 -0 0 0 0 0 0 0 0 0 0 0 0 1 1 1 0 0 0 0 0 0 0 0 0 0 0 0 -0 -0 -0 -0 -0 0 0 0 0 0 0 0 1 0 0 1 1 1 nan
nan 0 0 0 0 0 0 0 -0 -0 -0 -0 -0 -0 -0 -0 -0 -0 -0 -0 -0 0 -0 -0 -0 0 0 0 0 0 0 0 0 0 0 0 0 0 0 0 0 0 0 0 0 0 0 0 0 0 -0 -0 -0 -0 -0 0 0 0 0 0 0 0 0 0 0 1 1 1 nan
nan 0 0 0 0 0 0 0 0 0 -0 -0 -0 0 0 -0 -0 -0 -0 -0 -0 0 0 -0 -0 -0 0 -0 -0 0 0 0 0 0 0 0 0 0 0 0 0 0 0 0 0 0 0 0 0 0 -0 -0 -0 -0 -0 -0 0 0 0 0 0 0 0 0 0 1 1 1 nan
nan 0 0 0 0 0 0 0 0 0 -0 -0 -0 0 0 0 -0 -0 -0 -0 -0 -0 -0 -0 -0 -0 -0 0 0 0 0 0 0 0 0 0 0 0 0 0 0 0 0 0 0 0 0 0 0 0 0 0 0 -0 0 0 0 -0 0 0 0 1 1 0 0 1 1 1 nan
nan 0 0 0 0 0 0 0 0 -0 -0 -0 -0 -0 -0 0 -0 -0 -0 -0 -0 -0 0 -0 -0 -0 -0 0 0 0 0 0 0 0 0 0 0 0 0 0 0 0 0 0 0 0 0 0 -0 -0 -0 0 0 0 0 0 0 0 -0 0 0 0 1 0 0 1 1 1 nan
nan 0 0 0 0 0 0 0 0 0 -0 -0 -0 -0 -0 -0 -0 -0 -0 -0 -0 -0 -0 -0 -0 -0 -0 -0 0 0 0 0 0 0 0 0 0 0 0 0 0 0 0 0 0 0 0 0 0 -0 -0 -0 -0 0 0 0 0 0 -0 -0 0 0 0 0 1 1 1 0 nan
nan 0 0 0 0 0 0 0 -0 -0 -0 -0 -0 -0 -0 -0 -0 -0 -0 -0 -0 -0 -0 -0 -0 -0 -0 0 0 0 0 0 0 0 0 0 0 0 0 0 0 0 0 0 0 0 0 0 0 0 0 0 -0 -0 0 0 0 0 -0 -0 -0 0 0 0 1 1 1 1 nan
nan 0 0 0 0 0 0 0 -0 -0 -0 -0 -0 -0 -0 -0 -0 -0 -0 -0 -0 -0 -0 -0 -0 0 0 0 0 0 0 0 0 0 0 0 0 0 0 0 0 0 0 0 0 0 0 -0 -0 0 0 0 0 -0 0 0 0 0 -0 -0 -0 -0 -0 0 0 1 1 1 nan
nan 0 0 0 0 0 0 -0 -0 -0 -0 -0 -0 -0 -0 -0 -0 -0 -0 -0 -0 -0 0 -0 -0 -0 0 0 0 0 0 0 0 0 0 0 0 0 0 0 0 0 0 0 0 0 0 -0 -0 -0 0 0 0 0 0 0 0 0 -0 -0 -0 -0 -1 -0 0 1 1 0 nan
nan 0 0 0 0 0 -0 -0 -0 -0 -0 -0 -0 -0 -0 -0 -0 -0 -0 -0 -0 -0 -0 0 -0 -0 -0 0 0 0 0 0 0 0 0 0 0 0 0 0 0 0 0 0 0 0 0 -0 -0 -0 -0 0 0 0 0 0 0 -0 -0 -0 -0 -0 -0 -0 0 0 1 0 nan
nan 0 0 0 0 0 -0 -0 -0 -0 -0 -0 -0 -0 -0 -0 -0 -0 -0 -0 -0 -0 -0 0 -0 -0 -0 -0 -0 0 0 0 0 0 0 0 0 0 0 0 0 0 0 0 0 0 0 -0 -0 -0 -0 -0 0 0 0 0 0 -0 -0 -0 -0 -0 -0 -0 -0 0 0 0 nan
nan 0 0 0 0 -0 -0 -0 -0 -0 -0 -0 -0 -0 -0 -0 -0 -0 -1 -1 -0 -1 -0 -0 0 0 -0 -0 -0 -0 -0 0 0 0 0 0 0 0 0 0 0 0 0 0 0 0 0 0 0 0 -0 -0 -0 0 0 0 0 0 -0 -0 -0 -0 -0 -0 -0 0 0 -0 nan
nan 0 0 0 0 -0 -0 -0 -0 -0 -0 -0 -0 -0 -0 -0 -0 -0 -1 -1 -1 -1 -1 -0 -0 0 0 -0 -0 -0 -0 0 0 0 0 0 0 0 0 0 0 0 0 0 0 0 0 0 0 0 0 -0 -0 0 0 0 0 0 0 0 -0 -0 -0 -0 -0 0 0 -0 nan
nan 0 0 0 -0 -0 -0 -0 -0 -0 -0 -0 -0 -0 -1 -0 -0 -0 -1 -1 -1 -0 -0 -0 -0 -0 0 0 0 -0 -0 0 0 0 0 0 0 0 0 0 0 0 0 -0 -0 -0 0 0 0 0 0 0 -0 -0 0 0 0 0 0 0 0 -0 -0 -0 -0 0 0 0 nan
nan 0 0 -0 -0 -0 -0 -0 -0 -0 -0 -0 -0 -0 -1 -1 -0 -0 -0 -1 -1 -1 -0 -0 -0 -0 0 0 0 0 0 0 0 0 0 0 0 0 0 0 0 0 -0 -0 -0 -0 -0 0 0 1 1 0 0 0 0 0 0 0 0 0 0 0 0 0 0 0 0 0 nan
nan 0 0 -0 -0 -0 -0 -0 -0 -0 -0 -0 -0 -0 -0 -1 -0 -0 -0 -0 -0 -0 -0 -0 -0 -0 -0 0 0 0 0 0 0 0 0 0 0 0 0 0 0 0 -0 -0 -0 -0 -0 -0 0 0 0 0 0 0 0 0 0 0 0 0 0 0 0 0 0 0 -0 -0 nan
nan 0 0 -0 -0 -0 -0 -0 -0 -0 -0 -0 -0 -0 -0 -0 -0 -0 -0 -0 -0 -0 -0 -0 -0 -0 -0 -0 0 0 0 0 0 0 0 0 0 0 0 0 0 -0 -0 0 0 -0 -0 -0 0 0 0 0 0 0 0 0 0 0 0 -0 -0 0 0 0 0 0 -0 -0 nan
nan 0 0 -0 -0 -0 -0 -0 -0 -0 -0 -0 -0 -0 -0 -0 -0 -0 -0 -0 -0 -0 -0 -0 -0 -0 -0 0 0 0 0 0 0 0 0 0 0 0 0 0 -0 -0 0 0 0 0 0 0 0 0 0 0 0 0 0 0 0 0 0 -0 -0 0 0 0 0 0 0 0 nan
nan 0 0 -0 -0 -0 -0 -0 -0 -0 -0 -0 -0 -0 -0 -0 -0 -0 -0 -0 -0 -0 -0 -0 -0 -0 -0 -0 0 0 0 0 0 0 0 0 0 0 0 0 -0 -0 -0 0 0 0 0 0 0 0 0 0 0 0 0 0 -0 -0 -0 0 0 0 0 0 0 0 0 0 nan
nan 0 0 -0 -0 -0 -0 -0 -0 -0 -0 -0 -0 -0 -0 -0 -0 -0 -0 -0 -0 -0 -0 -0 -0 -0 -0 -0 -0 0 0 0 0 0 0 0 0 0 0 0 0 -0 0 0 0 0 0 0 0 0 0 0 0 0 -0 -0 -1 -1 -0 0 0 0 0 0 0 0 0 0 nan
nan 0 0 0 -0 -0 -0 -0 -0 -0 -0 -0 -0 -0 -0 -0 -0 -0 0 0 0 -0 -0 0 -0 0 0 0 -0 -0 0 0 0 0 0 0 0 0 0 0 0 0 0 0 0 0 -0 -0 -0 -0 -0 -0 -1 -1 -1 -1 -1 -1 -1 -0 0 0 0 0 0 0 -0 -0 nan
nan 0 0 0 -0 -0 -0 -0 -0 -0 -0 -0 -0 -0 -0 -0 -0 -0 0 0 0 0 0 0 0 0 0 0 0 0 -0 -0 0 0 0 0 0 0 0 0 0 0 0 0 1 0 0 -0 -1 -1 -0 -0 -0 -0 -0 -0 -0 -0 -0 -0 -0 0 0 0 -0 0 0 0 nan
nan 0 0 0 0 -0 -0 -0 -0 -0 -0 -0 -0 -0 -0 -0 -0 -0 -0 0 0 0 0 0 0 0 0 0 0 0 0 0 -0 -0 -0 0 0 0 0 0 0 0 0 0 1 1 1 1 0 -0 -0 -0 0 0 0 0 0 -0 -0 -0 0 0 0 0 -0 -0 0 -0 nan
nan 0 0 0 0 0 0 -0 -0 -0 -0 -0 -0 -0 -0 -0 -0 -0 -0 -0 -0 0 -0 -0 -0 -0 -0 0 0 0 0 0 0 0 -0 -0 -0 -0 0 0 0 0 0 0 0 0 1 1 2 1 1 0 0 0 0 0 0 0 0 0 0 0 0 0 0 0 0 0 nan
nan 0 0 0 0 0 0 -0 -0 -0 -0 -0 -0 -0 -0 -0 -0 -0 -0 -0 -0 -0 -0 -0 -0 0 0 0 0 0 0 0 0 0 0 0 -0 -0 -0 -0 -0 0 0 0 0 0 0 1 2 2 1 0 0 0 0 0 0 0 0 -0 -0 -0 0 0 0 0 0 0 nan
nan 0 0 0 0 0 0 0 -0 -0 -0 -0 -0 -0 -0 -0 -0 -0 -0 -0 -0 -0 -0 0 0 0 0 0 0 0 0 0 0 0 0 0 0 -0 -0 -0 -0 0 0 0 0 0 0 1 1 2 1 1 0 -0 0 0 0 0 -0 -0 -0 -0 -0 -0 0 0 0 0 nan
nan -0 -0 -0 0 0 0 0 -0 -0 -0 -0 -0 -0 -0 -0 -0 -0 -0 -0 -0 -0 -0 -0 -0 0 0 0 0 0 0 0 0 0 0 0 0 0 -0 -0 -0 0 0 1 0 0 0 1 1 1 1 0 0 -0 -0 0 0 0 -0 -0 -0 0 -0 0 0 0 0 0 nan
nan -0 -0 -0 0 0 0 -0 -0 -0 -0 -0 -0 -0 -0 -0 -0 -0 -0 -0 -0 -0 -0 -0 -0 -0 0 0 0 0 0 0 0 0 0 0 -0 -0 -0 -0 -0 0 0 0 0 0 0 1 1 1 1 0 -0 0 0 0 -0 -0 0 0 0 0 0 0 0 0 0 -1 nan
nan -0 -0 -0 -0 0 0 -0 -0 -0 -0 -0 -0 -0 -0 -0 -0 -0 -0 -0 -0 -0 -0 -0 -0 -0 0 0 0 0 0 0 0 0 0 0 -0 -0 -0 -0 -0 0 0 0 0 0 0 1 1 1 1 0 -0 -0 -0 -0 0 0 0 0 0 0 0 0 0 0 -0 -1 nan
nan -0 -0 -0 -0 -0 0 -0 -0 -0 -0 -0 -0 -0 -0 -0 -0 -0 -0 -0 -0 -0 -0 -0 -0 -0 0 0 0 0 -0 -0 0 0 0 0 -0 -0 -0 -0 -0 0 0 0 0 0 0 1 1 1 1 0 -0 0 0 0 0 0 0 0 0 0 0 0 0 -0 -1 -1 nan
nan -0 -0 -0 -0 -0 0 -0 -0 -0 -0 -0 -0 -0 -0 -0 -0 -0 0 -0 -0 -0 -0 -0 -0 -0 -0 -0 -0 -0 -0 -0 0 0 0 0 0 -0 -0 -0 -0 0 1 1 0 0 0 1 1 1 0 0 0 0 0 0 0 0 0 0 0 0 0 0 -0 -0 -0 -0 nan
nan -0 -0 -0 -0 -0 0 0 -0 -0 -0 0 0 0 -0 -0 -0 -0 -0 0 -0 -0 -0 -0 -0 -0 -0 -0 -0 -0 -0 -0 -0 0 0 0 0 -0 -0 -0 -0 0 1 1 1 0 0 1 1 1 0 -0 -0 0 0 0 0 0 0 0 0 0 -0 -0 -0 -0 -0 -0 nan
nan -0 -0 -0 -0 -0 0 0 0 0 -0 -0 0 0 0 0 -0 -0 -0 -0 -0 -0 0 0 0 0 0 0 -0 -0 -0 -0 -0 0 0 0 0 0 -0 -0 -0 1 1 1 1 1 1 1 1 1 0 -0 -0 -0 0 0 0 0 0 0 0 -0 -0 -0 -0 -0 -0 -0 nan
nan -0 -0 -0 -0 -0 0 0 0 0 0 0 0 0 0 0 0 0 0 -0 -0 -0 -0 0 0 0 0 0 0 0 -0 -0 -0 0 0 1 1 0 -0 -1 -0 0 1 1 1 1 1 1 1 1 0 0 0 0 0 0 0 0 0 0 0 -0 -0 -0 -0 -0 -0 -0 nan
nan -0 -0 -0 -0 -0 -0 0 -0 0 0 0 0 0 0 -0 0 0 0 0 -0 -0 -0 -0 -0 0 0 0 -0 0 0 0 0 0 0 1 1 0 -0 -1 -1 0 1 1 1 1 1 1 1 1 0 0 0 0 0 0 0 0 0 0 0 -0 -0 -0 -0 -0 -0 -0 nan
nan -0 -0 -0 -0 -0 -0 0 0 0 0 0 0 0 0 -0 -0 0 0 0 0 -0 -0 -0 -0 -0 0 -0 -0 -0 0 0 1 0 0 1 1 1 0 -1 -1 -0 0 1 1 1 1 1 1 1 1 0 0 0 0 0 0 0 0 0 0 -0 -0 -0 -0 -0 -0 0 nan
nan -0 -0 -0 -0 -0 -0 0 0 0 0 0 0 0 0 0 0 0 0 0 0 -0 -0 -0 -0 -0 0 -0 -0 -0 -0 0 1 1 1 1 1 1 1 -0 -1 -0 0 1 1 1 1 1 1 1 1 0 0 0 0 0 0 0 0 0 0 -0 -0 -0 -0 -0 -0 -0 nan
nan 0 -0 -0 -0 -0 0 0 0 0 0 0 0 0 0 0 0 0 0 0 0 0 -0 -0 -0 -0 0 0 -0 -0 -0 -0 0 1 1 1 1 1 1 1 -0 -0 0 1 1 1 1 1 1 1 1 0 0 0 0 0 0 0 0 -0 -0 -0 -0 -0 -0 -0 -0 -0 nan
nan nan nan nan nan nan nan nan nan nan nan nan nan nan nan nan nan nan nan nan nan nan nan nan nan nan nan nan nan nan nan nan nan nan nan nan nan nan nan nan nan nan nan nan nan nan nan nan nan nan nan nan nan nan nan nan nan nan nan nan nan nan nan nan nan nan nan nan nan
Wind_Speed
11 10 10 11 11 12 12 13 14 15 16 17 18 19 20 20 21 21 21 21 22 22 22 23 23 24 24 24 24 24 25 25 24 24 24 24 24 24 24 24 24 24 24 24 25 25 25 26 27 27 28 28 29 29 29 29 29 30 30 30 30 30 30 30 30 30 30 29 29
11 11 11 12 12 13 13 14 15 15 16 17 18 19 19 20 20 21 21 21 21 22 22 23 23 24 24 25 25 25 25 25 25 25 25 24 24 24 24 24 24 24 25 25 25 26 26 26 27 28 28 29 29 29 30 30 30 30 30 30 30 30 30 30 30 30 30 30 29
12 12 12 12 13 13 13 14 14 15 16 17 18 18 19 19 20 20 21 21 21 22 23 23 24 24 25 25 26 26 26 26 26 25 25 25 25 24 24 24 24 25 25 25 25 26 26 27 27 28 29 29 30 30 30 30 30 30 30 30 30 30 30 30 30 30 30 30 30
13 13 13 13 13 13 13 14 14 15 15 16 17 18 18 19 19 20 20 21 22 22 23 24 24 25 25 26 26 26 26 26 26 26 26 25 25 25 25 25 25 25 25 25 26 26 27 27 28 28 29 29 30 30 30 30 30 30 30 30 30 30 30 30 30 30 30 30 30
13 13 13 13 12 13 13 14 14 14 15 16 17 17 18 19 19 20 21 21 22 23 23 24 25 25 26 26 26 26 26 26 26 26 26 26 26 25 25 25 25 25 25 26 26 26 27 27 28 28 29 29 30 30 30 30 30 30 30 30 30 30 30 30 30 30 30 30 30
14 13 13 12 12 12 13 13 14 14 15 16 17 17 18 19 19 20 21 22 22 23 24 24 25 26 26 26 27 27 27 26 26 26 26 26 26 26 25 25 25 25 25 26 26 26 27 27 28 28 29 29 30 30 30 30 30 30 30 30 30 30 30 30 30 31 31 31 31
13 12 12 12 12 12 13 13 14 14 15 16 17 17 18 19 20 20 21 22 23 24 24 25 25 26 26 27 27 27 27 27 27 26 26 26 26 26 26 26 26 25 25 26 26 26 26 27 28 28 29 29 29 29 29 29 30 30 31 31 31 30 30 30 31 31 31 31 32
12 11 11 11 11 12 12 13 14 14 15 16 16 17 18 19 20 21 22 23 23 24 25 25 26 26 27 27 27 27 27 27 27 27 26 26 26 26 26 26 26 26 25 25 26 26 26 27 27 28 28 29 29 29 29 29 30 30 31 31 31 31 30 30 31 31 31 32 32
11 11 10 11 11 12 12 13 13 14 15 15 16 17 19 19 21 21 22 23 24 25 25 26 26 27 27 27 27 27 27 27 27 27 27 27 26 26 26 26 26 26 26 25 25 26 26 27 27 28 28 28 29 29 29 29 30 30 30 31 31 31 31 30 30 31 31 31 32
10 10 10 10 11 11 12 12 13 14 14 15 17 18 19 20 21 22 23 24 25 25 26 26 27 27 27 27 27 27 27 27 27 27 27 27 27 26 26 26 26 26 26 25 25 25 26 27 27 27 28 28 28 28 29 29 29 30 30 30 31 31 31 30 30 30 30 31 31
10 10 10 10 10 11 11 12 13 13 15 16 17 18 19 20 22 23 24 25 25 26 26 27 27 27 28 28 27 27 27 27 27 27 27 27 27 27 26 26 26 26 26 25 25 25 26 26 27 27 27 27 28 28 28 29 29 29 30 30 30 30 30 30 30 29 29 30 30
10 10 10 10 10 11 11 11 12 14 15 16 17 19 20 21 23 24 25 25 26 26 27 27 27 28 28 28 28 27 27 27 27 27 27 27 27 27 26 26 26 25 25 25 25 25 26 26 27 27 28 28 28 28 28 28 29 29 29 30 30 30 30 30 29 29 29 29 29
10 9 9 9 10 10 11 12 13 14 16 17 18 20 21 23 24 25 26 27 27 27 27 28 28 28 28 28 28 27 27 27 27 27 27 27 27 26 26 26 25 25 25 25 25 25 25 26 26 27 28 28 28 28 28 28 28 29 29 29 29 29 29 29 29 28 28 28 28
10 9 9 9 10 10 11 12 14 15 17 18 20 21 23 24 25 26 27 28 28 28 28 28 28 28 27 27 27 27 27 27 27 27 27 27 26 26 26 25 25 25 25 25 25 25 25 26 26 27 27 28 28 28 28 28 28 28 28 29 29 29 29 28 28 27 27 27 27
9 8 8 9 10 11 12 13 15 16 18 19 21 23 24 25 26 27 28 28 28 28 28 28 28 27 27 27 27 27 27 27 27 27 27 26 26 26 25 25 25 25 25 25 25 25 25 26 26 27 27 28 28 28 28 28 27 27 28 28 28 28 28 28 27 27 27 27 28
8 8 8 9 10 11 13 14 16 18 19 21 23 24 25 27 27 28 28 29 29 29 28 28 27 27 27 26 26 26 26 26 26 26 26 26 26 25 25 25 25 25 25 25 26 26 26 26 26 27 27 28 28 28 28 28 28 27 27 27 27 27 27 27 26 27 27 27 28
8 8 9 10 11 12 13 15 17 19 20 22 24 25 27 27 28 29 29 29 29 28 28 27 27 27 26 26 26 26 26 26 26 26 26 26 25 25 25 25 25 25 25 26 26 26 26 26 27 27 27 27 28 28 28 28 28 27 27 27 26 26 26 26 27 27 28 28 29
8 9 9 10 11 13 14 16 18 20 22 23 25 26 27 28 29 29 29 29 28 28 28 27 27 26 26 26 26 25 25 25 25 25 25 25 25 24 24 24 25 25 25 26 26 27 27 27 27 27 27 27 28 28 28 28 27 27 27 26 26 26 27 27 28 28 28 29 29
9 9 10 11 12 14 15 17 19 21 23 25 26 27 28 29 29 29 29 28 28 27 27 27 26 26 26 25 25 25 25 25 25 25 25 24 24 24 24 24 25 25 25 26 26 27 27 27 27 27 27 28 28 28 27 27 27 26 26 26 27 27 28 28 28 29 29 29 29
9 10 10 12 13 14 16 18 20 22 24 26 27 28 29 29 29 29 28 27 27 27 27 26 26 26 25 25 25 25 25 24 24 24 24 24 24 24 24 24 25 25 26 26 26 27 27 27 27 27 28 28 28 28 27 27 27 27 27 27 28 28 29 29 29 29 29 30 30
10 10 11 12 13 15 17 19 21 23 25 27 28 29 29 29 29 28 28 27 27 26 26 26 25 25 25 25 25 25 24 24 24 23 23 23 23 23 24 25 25 26 26 26 27 27 27 27 27 28 28 28 27 27 27 27 27 28 28 29 29 29 29 30 30 30 30 30 31
10 10 11 13 14 16 18 20 22 24 26 28 29 29 30 29 29 28 27 27 26 26 25 25 25 25 25 25 25 25 24 24 23 23 23 23 23 23 24 24 25 26 26 26 27 27 27 28 28 28 28 28 28 28 28 28 28 29 29 30 30 30 30 30 30 31 31 31 32
10 11 12 13 15 17 19 21 23 25 27 28 29 30 30 29 29 28 27 26 26 25 25 25 25 25 25 25 25 24 24 24 23 23 23 23 23 24 24 25 25 26 26 26 27 27 28 28 28 28 28 28 28 28 28 28 29 29 30 30 31 31 31 31 31 31 32 32 32
11 12 13 14 16 18 20 22 24 26 28 29 30 30 30 30 29 28 27 26 26 25 25 25 25 25 25 24 24 24 24 23 23 23 23 23 23 24 24 25 25 26 26 26 27 27 27 28 28 28 28 27 27 27 28 28 28 29 30 30 31 31 31 31 32 32 32 32 32
11 12 14 15 17 19 21 23 25 27 29 30 31 31 31 30 29 28 27 26 26 25 25 25 25 25 24 24 24 23 23 23 23 23 24 24 24 24 25 25 26 26 26 27 27 27 27 27 27 27 27 26 26 27 27 27 28 28 29 30 30 31 32 32 32 32 33 33 33
12 13 15 16 18 20 22 24 26 28 30 31 31 31 31 30 29 28 27 26 26 26 25 25 25 25 24 24 24 23 23 23 23 23 24 24 25 25 25 26 26 26 27 27 27 27 27 27 26 25 25 26 26 26 27 27 28 28 29 30 30 31 32 33 33 33 33 33 33
13 14 16 17 19 21 23 25 27 29 31 32 32 31 31 30 29 28 27 27 26 26 26 25 25 25 24 24 24 23 23 23 23 23 24 25 25 26 26 26 26 26 27 27 27 27 27 27 26 25 25 25 26 26 27 28 29 29 30 30 31 31 32 33 33 33 34 34 34
14 15 17 18 20 22 24 26 28 30 31 32 32 32 31 30 29 28 27 27 27 26 26 26 25 25 24 24 23 23 23 23 23 24 24 25 26 26 26 26 27 27 27 27 27 27 27 27 26 25 25 25 25 26 27 28 29 30 30 30 31 32 32 32 33 34 34 35 36
15 16 18 19 21 23 25 27 29 30 31 32 32 32 31 29 28 28 27 27 27 26 26 26 26 25 24 24 23 23 23 23 24 24 25 25 26 26 27 27 27 27 27 27 27 27 27 26 26 25 25 24 25 26 27 28 29 30 30 31 32 32 32 33 34 35 36 36 36
16 17 19 20 22 24 26 28 29 31 32 32 32 31 30 29 28 28 27 27 27 26 26 26 26 25 24 24 23 23 23 24 24 25 25 26 26 27 27 27 27 27 27 27 27 27 27 26 26 26 25 24 25 25 27 28 29 30 30 31 32 33 33 34 35 35 35 34 32
17 18 20 21 23 25 27 28 30 31 32 32 31 30 30 29 28 28 27 27 27 27 26 26 25 25 24 24 23 23 24 24 24 25 26 26 27 27 27 27 27 27 27 27 27 27 26 26 26 26 25 25 25 25 26 27 29 30 31 32 33 34 34 34 34 33 32 29 26
18 19 21 22 24 26 27 29 30 31 32 31 31 30 29 28 28 28 27 27 27 27 26 26 25 25 24 24 24 24 24 25 25 25 26 27 27 27 28 27 27 27 27 27 27 26 26 26 26 26 25 25 25 25 27 28 29 30 31 32 33 33 33 32 31 30 27 25 24
19 20 22 23 25 26 28 29 30 31 31 31 30 29 29 28 28 27 27 27 26 26 26 26 25 25 24 24 24 24 25 25 26 26 26 27 27 28 28 28 27 27 27 27 26 26 26 26 26 26 26 25 25 26 27 28 29 31 32 32 33 32 31 29 27 25 24 23 24
20 21 23 24 26 27 28 29 30 31 31 30 30 29 28 28 28 27 27 27 26 26 26 25 25 24 24 24 24 25 25 26 26 26 27 27 27 28 28 28 27 27 27 27 26 26 27 27 27 26 26 25 26 26 28 29 30 31 32 32 31 30 28 25 24 23 23 24 25
20 22 23 25 26 28 29 29 30 30 30 30 29 29 28 28 27 27 27 27 26 26 26 25 25 24 24 24 25 25 26 27 27 27 27 28 28 28 28 28 28 27 27 26 26 27 27 27 27 26 26 26 26 27 28 29 30 31 31 31 30 28 26 24 23 23 24 24 25
21 22 24 25 27 28 29 29 30 30 30 29 29 28 28 28 27 27 27 26 26 26 26 25 25 24 24 25 25 26 26 27 28 28 28 28 28 29 29 29 28 28 27 27 27 27 27 27 27 27 26 26 27 27 28 29 30 30 31 30 29 28 26 25 25 25 25 26 26
22 23 24 26 27 28 29 29 30 29 29 29 28 28 28 28 27 27 27 26 26 26 26 25 25 25 25 25 26 26 27 27 28 28 29 28 28 29 29 29 28 28 27 27 27 27 27 27 27 27 26 26 26 27 28 28 29 30 30 30 29 28 27 26 26 27 27 27 28
22 24 25 26 27 28 29 29 29 29 28 28 28 28 27 27 27 27 26 26 26 26 26 26 25 25 25 26 26 27 27 27 28 28 29 29 28 28 29 29 29 28 28 27 27 27 27 27 27 26 25 25 25 26 27 28 29 30 30 30 30 29 28 27 27 27 28 29 29
23 24 25 27 28 28 29 29 29 28 28 28 28 28 27 27 27 27 26 26 26 26 26 26 26 26 26 26 27 28 28 28 28 28 29 29 29 28 29 29 29 29 28 27 27 27 27 27 27 26 24 24 24 25 27 28 29 30 30 30 30 30 29 28 28 28 29 29 30
24 25 26 27 28 28 29 29 28 28 28 28 28 27 27 27 27 27 26 26 26 26 26 26 26 26 26 27 27 28 29 29 28 28 28 29 28 28 28 29 29 29 28 28 27 27 27 27 26 25 23 23 23 25 26 28 29 30 30 30 30 30 30 29 29 29 30 30 30
25 26 26 27 28 28 28 28 28 28 28 27 27 27 27 27 27 27 26 26 26 25 26 26 26 26 26 27 28 29 29 29 29 29 28 28 28 28 28 28 29 29 28 28 27 27 27 26 26 24 23 22 23 24 26 28 29 30 30 30 30 30 30 31 30 30 30 30 30
Wind_Direction
259 265 271 276 281 285 290 294 298 302 306 309 312 314 315 317 317 318 318 318 318 318 318 318 318 318 318 317 316 315 314 313 312 310 308 306 304 302 301 299 298 297 295 294 294 293 292 291 291 290 290 289 289 289 289 289 289 289 289 288 288 288 287 286 286 285 285 285 285
261 266 271 276 281 286 291 296 300 304 308 310 313 314 315 316 317 317 317 318 318 318 318 317 317 317 317 316 316 315 314 313 311 310 308 306 305 303 300 299 297 296 295 293 293 292 291 290 289 289 289 288 288 288 288 288 288 288 288 287 287 287 287 286 285 286 286 285 285
261 266 272 277 282 287 293 298 302 306 309 311 313 314 315 315 316 316 317 317 317 317 317 317 317 316 316 316 315 314 314 312 311 310 309 307 305 303 301 299 297 296 294 293 292 291 291 290 289 289 289 288 288 288 288 288 288 288 287 287 287 287 286 286 286 286 287 286 286
260 265 271 276 282 288 294 298 302 305 308 310 312 313 314 315 315 316 316 316 317 317 317 317 316 316 315 315 314 314 313 312 311 310 309 308 306 304 302 300 299 297 295 294 293 292 291 290 289 289 289 288 288 288 288 289 288 288 287 287 287 287 287 286 286 287 287 287 287
259 264 270 276 282 288 293 297 301 304 306 309 311 313 314 314 315 316 316 317 317 317 317 317 317 316 315 315 314 314 313 312 312 310 309 308 307 305 303 302 300 298 297 295 294 293 292 291 290 289 289 289 289 288 289 289 289 288 287 287 287 287 287 287 287 287 287 287 287
259 264 270 276 282 288 293 297 300 303 306 309 311 313 313 314 315 316 317 318 318 318 318 318 317 317 316 315 315 314 314 313 312 311 309 308 307 306 304 303 301 300 298 297 295 294 293 292 291 290 289 289 289 289 289 290 289 289 288 288 288 288 288 288 288 288 288 287 287
259 265 271 276 282 287 292 296 300 304 308 310 312 313 314 315 316 317 318 318 319 319 319 319 318 317 317 316 315 315 314 313 312 311 310 309 308 306 305 303 302 300 299 298 296 295 293 292 291 290 290 290 290 290 290 290 290 289 289 288 288 289 289 289 289 289 288 288 287
259 264 269 275 281 286 291 296 301 306 309 312 314 315 316 317 318 319 320 321 321 321 321 320 319 318 317 317 316 315 314 313 312 311 310 309 308 306 305 304 302 301 299 298 297 295 294 293 292 291 291 291 291 291 291 291 291 290 290 289 289 289 289 289 290 290 289 289 288
258 263 268 275 281 287 293 298 303 308 311 314 315 317 318 320 321 321 322 323 323 323 322 321 320 319 318 317 317 316 315 313 312 311 310 309 308 307 305 304 303 301 300 299 297 296 295 294 293 292 292 292 292 292 292 292 291 291 290 290 290 290 290 290 290 290 290 289 289
257 263 270 277 284 290 296 301 306 310 313 315 317 318 320 322 323 324 324 324 324 324 323 322 320 319 318 317 316 315 314 313 312 311 310 309 308 306 305 304 303 301 301 299 298 297 296 294 294 293 293 293 293 293 293 293 292 292 291 291 291 291 291 290 290 290 290 289 289
257 264 271 279 286 293 299 304 308 312 314 316 318 320 322 324 325 325 325 326 326 325 323 322 320 319 318 317 316 315 314 313 312 311 310 309 307 306 305 304 303 302 301 300 299 298 296 296 295 295 294 294 294 294 294 293 293 293 292 292 292 292 292 291 291 290 290 290 289
258 266 274 282 289 296 301 306 310 313 315 318 320 322 324 326 326 327 327 327 326 325 324 322 320 319 318 317 316 315 314 313 311 310 309 308 307 306 304 303 303 302 301 300 299 298 298 297 296 296 296 295 295 295 295 295 294 294 294 293 293 293 293 292 292 292 291 291 291
259 267 276 284 292 298 303 307 311 314 317 320 322 325 327 328 328 328 328 328 326 325 324 322 320 319 318 316 315 314 313 312 311 309 308 307 306 305 304 303 302 302 301 300 300 299 299 298 298 298 297 297 297 296 296 296 295 295 295 295 295 294 294 294 294 294 294 293 293
261 269 277 286 294 300 305 309 313 316 320 323 325 327 329 330 330 330 329 328 327 325 323 322 320 319 317 316 315 313 312 311 309 308 307 306 305 304 303 302 302 302 302 301 301 301 300 300 300 299 299 298 298 297 297 297 296 296 296 296 297 297 297 297 297 297 297 297 296
262 269 279 288 295 302 307 312 316 320 323 326 328 330 331 332 332 331 330 328 326 325 323 322 320 318 317 315 314 312 311 310 308 307 306 305 304 303 303 303 303 303 303 302 302 302 302 302 301 301 300 299 299 298 298 298 297 297 297 298 298 299 299 300 300 300 300 300 299
263 271 280 290 298 305 311 315 320 324 327 330 331 332 333 333 333 332 330 328 326 324 323 321 319 317 316 314 313 311 310 309 308 306 305 305 304 304 304 304 304 304 304 304 303 303 303 303 302 302 301 300 300 299 299 299 299 298 299 300 300 301 302 302 303 303 303 302 302
265 273 283 293 302 309 315 319 324 327 330 333 334 334 335 334 333 332 330 327 325 324 322 320 318 317 315 314 312 311 309 308 307 306 305 305 305 305 305 305 305 305 305 305 305 304 304 304 303 303 302 301 301 300 300 300 300 301 301 302 303 303 304 305 305 305 305 304 304
269 278 288 298 307 314 319 323 327 330 333 334 336 336 335 334 333 331 329 327 325 323 321 319 318 316 315 313 312 311 309 308 307 306 306 306 306 306 306 306 306 306 306 306 306 306 306 305 304 303 303 302 301 302 302 302 302 303 304 304 305 306 306 307 306 306 306 306 306
274 284 294 304 312 318 322 326 330 333 335 336 336 336 336 334 333 331 329 326 324 322 320 319 317 316 315 313 312 311 310 308 308 307 307 307 307 307 307 307 307 307 307 307 307 307 306 306 305 304 304 303 303 303 303 304 305 305 306 307 307 308 308 307 307 307 306 306 306
279 290 300 309 316 321 325 329 332 334 335 336 337 336 336 334 332 330 328 326 324 322 320 319 317 316 315 314 313 311 310 309 309 308 308 308 308 308 308 308 308 308 308 308 308 308 307 306 306 305 304 304 304 305 306 307 307 308 309 309 309 309 308 308 307 307 307 306 306
283 294 305 313 319 323 326 330 332 334 336 337 337 336 335 333 332 330 327 326 324 322 320 319 317 316 315 314 313 312 311 311 310 310 309 309 309 309 309 309 308 308 309 309 308 308 307 307 306 306 306 306 307 308 309 310 311 311 311 310 310 309 309 308 307 307 307 307 306
288 299 309 316 320 324 327 330 333 335 336 337 337 336 335 333 331 329 327 326 324 322 320 319 318 317 316 315 314 313 313 312 312 311 310 310 310 309 309 309 309 309 309 309 309 309 308 308 307 308 309 310 311 312 313 313 313 312 311 310 310 309 308 307 307 306 306 306 306
293 304 312 317 320 324 327 330 333 335 336 337 336 335 334 332 331 329 327 326 324 322 321 319 318 317 316 316 315 315 314 313 313 312 311 311 310 310 310 310 310 310 310 310 311 310 310 310 311 312 313 314 315 315 314 313 312 311 310 310 309 308 307 306 306 306 306 305 305
298 307 312 316 320 324 327 330 333 335 336 336 336 335 333 332 330 329 327 325 324 322 321 320 319 318 317 317 316 316 315 314 313 313 312 311 311 311 311 311 311 311 312 312 312 313 313 314 315 316 316 316 315 314 312 311 310 309 308 307 307 306 305 305 305 305 304 304 303
301 307 312 316 320 324 327 331 333 335 336 336 335 334 333 331 330 328 327 325 324 323 322 321 320 319 318 318 317 317 316 315 314 313 312 312 312 312 312 312 313 313 313 314 314 314 315 316 317 317 316 314 312 310 309 308 307 306 306 305 305 305 305 304 303 303 302 302 301
303 308 313 316 321 324 328 331 333 334 335 335 335 334 332 331 329 328 326 325 324 323 322 321 320 320 319 319 318 317 317 315 315 314 313 313 313 313 314 314 314 315 315 315 315 315 315 316 316 315 313 311 310 310 309 308 307 306 305 305 305 304 303 303 302 302 301 301 300
304 309 313 317 321 325 328 330 332 334 334 334 334 333 332 330 329 327 326 325 324 323 323 322 321 321 320 319 319 318 317 316 315 315 314 314 314 315 315 316 316 316 316 316 316 316 316 316 315 314 312 311 311 310 309 307 306 306 305 304 304 303 302 301 301 301 300 300 299
305 309 313 318 322 325 328 330 332 333 334 334 333 332 331 329 328 327 326 325 324 324 323 322 322 321 321 320 319 318 318 317 316 316 316 316 316 316 316 317 317 317 317 317 316 316 316 315 315 314 313 311 311 309 308 306 305 305 304 303 302 301 300 300 300 300 299 299 299
306 310 314 318 322 325 328 330 332 333 333 333 332 331 330 328 327 326 325 325 324 324 323 323 322 322 321 320 319 318 318 317 317 317 317 316 316 317 317 318 318 318 318 318 317 316 316 316 316 315 313 312 310 308 306 305 304 303 302 301 300 299 299 298 298 299 299 300 300
307 311 315 319 322 325 328 330 331 332 333 332 332 330 329 327 327 326 325 324 324 323 323 323 322 322 321 320 319 318 318 318 318 318 318 317 318 318 318 318 318 318 318 318 317 316 317 317 316 315 313 312 310 308 306 304 303 301 300 299 298 298 298 298 299 299 300 301 302
308 312 316 320 323 326 328 330 331 332 332 331 330 329 328 327 326 325 325 324 323 323 323 322 322 321 320 320 319 318 318 319 319 319 319 319 318 319 319 319 319 319 319 318 318 317 318 318 316 314 313 312 310 307 305 303 301 300 298 298 297 297 298 299 300 301 301 302 303
310 314 317 321 324 327 329 330 331 331 331 330 329 328 327 326 325 324 324 323 323 322 322 321 321 320 320 319 319 319 319 320 320 320 319 319 319 319 319 319 319 319 319 319 318 318 318 318 316 314 313 311 310 307 304 301 300 298 297 297 298 299 300 301 302 302 302 302 303
312 315 319 322 325 327 329 330 331 330 330 329 328 327 325 325 324 324 323 323 322 321 321 320 320 319 319 319 319 320 320 320 320 320 320 320 319 319 319 319 319 319 319 319 319 319 318 318 317 315 313 312 309 306 302 300 299 298 298 298 299 301 302 303 304 304 302 302 302
313 316 320 323 326 328 329 330 330 329 328 327 326 325 324 324 323 323 322 321 321 320 319 319 318 318 318 319 319 319 320 320 320 321 320 320 320 319 318 318 318 319 319 319 319 319 319 318 317 316 314 311 308 304 301 300 299 299 299 301 302 304 305 306 306 305 304 302 302
314 318 321 324 326 328 329 329 329 328 327 326 325 324 323 322 322 321 321 320 319 318 317 317 317 317 318 318 319 319 320 320 321 321 321 320 319 319 318 317 317 318 318 319 319 319 319 319 318 316 314 310 307 304 302 301 301 301 302 304 306 307 309 309 309 308 306 304 303
315 319 322 325 327 328 328 328 327 326 325 324 323 322 321 321 320 320 319 318 317 316 316 316 316 317 317 318 319 319 320 320 320 320 320 320 319 318 318 317 317 317 318 319 319 320 320 319 318 315 313 310 307 305 304 303 303 304 305 307 308 309 310 310 310 309 309 308 307
317 320 323 325 327 327 327 327 326 325 324 323 322 320 320 319 318 318 317 317 316 315 315 315 316 316 317 318 318 319 319 320 320 320 320 319 319 318 317 316 316 317 318 319 320 320 320 319 318 315 313 310 308 306 305 305 305 306 307 309 309 310 310 310 309 310 311 312 313
318 321 324 325 326 326 326 325 324 323 322 321 320 319 318 317 317 316 315 315 314 314 313 314 314 315 316 317 317 318 319 319 320 319 319 319 318 318 317 316 316 316 318 319 320 320 320 319 318 316 313 311 308 306 305 306 306 307 308 309 309 309 309 309 309 310 311 313 315
320 322 324 325 325 325 325 324 322 321 320 318 317 317 316 315 315 314 314 313 312 312 312 312 313 314 315 316 316 317 318 319 319 319 318 318 317 317 316 315 315 316 318 320 320 320 320 319 318 317 315 311 308 306 305 306 306 307 308 308 308 309 309 309 310 311 312 313 314
321 323 324 324 324 324 323 321 320 319 317 316 315 314 314 313 313 312 312 311 310 310 310 310 311 313 314 315 315 316 317 318 318 318 318 317 316 315 315 315 315 316 318 319 320 320 320 319 319 318 315 311 307 306 306 306 306 306 306 307 308 308 309 310 311 311 312 312 312
322 323 323 323 323 322 321 319 318 316 315 314 313 312 312 311 311 310 310 310 309 309 308 309 310 311 312 313 314 315 316 317 317 317 317 316 315 314 314 314 315 316 318 319 320 321 321 320 320 318 314 310 307 306 305 305 305 305 306 307 308 309 310 310 310 311 311 310 309
Height
1543 1543 1543 1543 1543 1542 1542 1542 1542 1541 1541 1540 1540 1540 1539 1538 1537 1537 1536 1535 1534 1533 1532 1531 1530 1529 1528 1528 1527 1526 1525 1524 1523 1522 1521 1521 1520 1519 1518 1517 1516 1516 1515 1514 1513 1512 1511 1510 1510 1509 1508 1507 1506 1505 1504 1503 1502 1501 1500 1500 1499 1498 1497 1496 1495 1494 1494 1493 1492
1541 1541 1541 1541 1541 1541 1541 1541 1540 1540 1540 1539 1539 1538 1537 1537 1536 1535 1534 1534 1533 1532 1531 1530 1529 1528 1527 1526 1525 1524 1523 1522 1521 1520 1520 1519 1518 1517 1516 1515 1515 1514 1513 1512 1511 1510 1509 1508 1507 1506 1505 1504 1503 1502 1501 1501 1500 1499 1498 1497 1496 1495 1494 1493 1492 1492 1491 1490 1490
1540 1540 1540 1540 1540 1540 1540 1539 1539 1539 1538 1538 1537 1537 1536 1535 1535 1534 1533 1532 1531 1530 1529 1528 1527 1526 1525 1524 1523 1522 1521 1520 1519 1518 1518 1517 1516 1515 1514 1513 1512 1512 1511 1510 1509 1508 1507 1506 1505 1504 1503 1502 1501 1500 1499 1498 1498 1497 1495 1494 1493 1493 1492 1490 1490 1489 1488 1487 1487
1539 1539 1539 1539 1539 1538 1538 1538 1538 1537 1537 1536 1536 1535 1535 1534 1533 1532 1531 1530 1530 1529 1528 1527 1525 1525 1524 1523 1522 1521 1520 1519 1517 1516 1515 1515 1514 1513 1512 1511 1510 1510 1509 1508 1507 1506 1505 1504 1503 1501 1500 1499 1498 1497 1497 1496 1495 1494 1493 1492 1491 1490 1489 1488 1487 1486 1485 1485 1484
1537 1537 1537 1537 1537 1537 1537 1537 1536 1536 1535 1535 1535 1534 1533 1532 1531 1531 1530 1529 1528 1527 1526 1525 1524 1523 1522 1521 1520 1519 1518 1517 1515 1515 1514 1513 1512 1511 1510 1509 1508 1507 1506 1505 1505 1504 1502 1501 1500 1499 1498 1497 1496 1495 1494 1493 1492 1491 1490 1489 1488 1487 1486 1485 1485 1484 1483 1482 1481
1536 1536 1536 1536 1536 1536 1535 1535 1535 1535 1534 1534 1533 1532 1532 1531 1530 1529 1528 1527 1526 1525 1525 1523 1522 1521 1520 1519 1518 1517 1516 1515 1514 1513 1511 1510 1510 1509 1508 1507 1506 1505 1504 1503 1502 1501 1500 1499 1498 1497 1496 1495 1494 1493 1492 1491 1490 1489 1487 1486 1486 1485 1484 1483 1482 1481 1480 1479 1479
1535 1535 1535 1534 1534 1534 1534 1534 1534 1533 1533 1532 1531 1531 1530 1529 1529 1528 1527 1526 1525 1524 1523 1521 1520 1519 1518 1517 1516 1515 1514 1513 1511 1510 1509 1508 1507 1506 1505 1505 1504 1503 1502 1501 1500 1499 1498 1497 1496 1495 1493 1493 1491 1490 1490 1489 1487 1486 1485 1484 1483 1482 1482 1480 1480 1479 1478 1477 1476
1533 1533 1533 1533 1533 1533 1533 1532 1532 1531 1531 1530 1530 1529 1528 1528 1527 1526 1525 1524 1523 1522 1521 1520 1518 1517 1516 1515 1514 1513 1511 1510 1509 1508 1507 1506 1505 1504 1503 1502 1501 1501 1500 1499 1498 1497 1496 1495 1493 1492 1491 1490 1489 1488 1487 1486 1485 1483 1482 1481 1480 1480 1479 1478 1477 1476 1475 1474 1473
1532 1532 1532 1532 1532 1531 1531 1531 1530 1530 1530 1529 1528 1528 1527 1526 1525 1524 1523 1522 1521 1520 1519 1518 1516 1515 1514 1513 1512 1510 1509 1508 1507 1506 1505 1504 1503 1502 1501 1500 1499 1498 1498 1497 1496 1495 1493 1492 1491 1490 1489 1488 1487 1485 1485 1484 1482 1481 1480 1479 1478 1477 1476 1476 1475 1474 1473 1472 1471
1531 1531 1530 1530 1530 1530 1530 1529 1529 1528 1528 1527 1527 1526 1525 1524 1523 1522 1521 1520 1519 1518 1517 1516 1515 1513 1512 1511 1510 1508 1507 1506 1505 1504 1503 1502 1501 1500 1499 1498 1497 1496 1495 1495 1494 1492 1491 1490 1489 1488 1487 1486 1485 1483 1482 1481 1480 1479 1477 1476 1475 1475 1474 1473 1473 1472 1471 1470 1469
1530 1530 1529 1529 1529 1529 1528 1528 1527 1527 1526 1526 1525 1525 1524 1523 1522 1520 1520 1518 1517 1516 1515 1514 1512 1511 1510 1509 1508 1506 1505 1504 1503 1502 1500 1500 1499 1498 1497 1496 1495 1494 1493 1492 1491 1490 1489 1487 1486 1485 1484 1483 1482 1481 1480 1479 1477 1476 1475 1474 1473 1472 1471 1470 1470 1470 1469 1467 1466
1529 1528 1528 1528 1527 1527 1527 1526 1526 1525 1525 1525 1524 1523 1522 1521 1520 1519 1518 1516 1515 1514 1513 1512 1510 1509 1508 1507 1505 1504 1503 1502 1501 1500 1499 1498 1496 1495 1495 1494 1493 1492 1491 1490 1489 1488 1486 1485 1484 1483 1482 1481 1480 1479 1477 1476 1475 1474 1473 1471 1471 1470 1469 1468 1468 1467 1466 1465 1464
1527 1527 1527 1526 1526 1526 1525 1525 1525 1524 1524 1523 1522 1521 1520 1519 1518 1517 1515 1515 1513 1512 1511 1510 1509 1507 1506 1505 1503 1502 1501 1500 1499 1498 1496 1495 1495 1494 1493 1492 1491 1490 1489 1488 1487 1485 1484 1483 1482 1480 1479 1478 1477 1476 1475 1474 1473 1471 1470 1469 1468 1467 1466 1466 1465 1464 1464 1462 1461
1526 1526 1525 1525 1525 1524 1524 1524 1523 1522 1522 1521 1520 1519 1518 1517 1516 1515 1514 1512 1511 1510 1509 1508 1506 1505 1504 1502 1501 1500 1499 1498 1497 1495 1495 1494 1493 1492 1490 1490 1489 1488 1486 1485 1485 1483 1482 1481 1480 1478 1477 1475 1475 1474 1473 1472 1470 1469 1468 1467 1466 1465 1464 1463 1463 1462 1461 1460 1459
1525 1524 1524 1524 1523 1523 1522 1522 1521 1521 1520 1519 1518 1517 1516 1515 1514 1513 1511 1510 1509 1508 1507 1505 1504 1503 1502 1500 1499 1498 1497 1496 1495 1494 1492 1491 1490 1490 1489 1487 1486 1485 1484 1483 1482 1481 1480 1479 1477 1476 1475 1473 1472 1471 1470 1469 1468 1467 1466 1465 1464 1463 1462 1461 1460 1460 1459 1457 1456
1523 1523 1523 1522 1522 1521 1521 1520 1520 1519 1518 1518 1516 1515 1515 1513 1512 1511 1510 1508 1507 1506 1505 1503 1502 1501 1500 1499 1497 1496 1495 1494 1493 1492 1490 1490 1489 1487 1486 1485 1484 1483 1482 1481 1480 1479 1478 1477 1475 1474 1473 1471 1470 1469 1468 1467 1466 1465 1464 1463 1462 1461 1460 1459 1458 1457 1456 1455 1454
1522 1522 1521 1521 1520 1520 1520 1519 1518 1517 1517 1516 1515 1514 1513 1511 1510 1509 1508 1506 1505 1504 1502 1501 1500 1499 1498 1497 1495 1494 1493 1492 1491 1490 1489 1487 1486 1485 1484 1483 1482 1481 1480 1479 1477 1476 1475 1474 1473 1472 1470 1469 1468 1466 1465 1464 1463 1462 1461 1460 1460 1459 1458 1456 1456 1455 1454 1452 1451
1521 1520 1520 1520 1519 1519 1518 1517 1517 1516 1515 1514 1513 1512 1511 1510 1508 1507 1506 1505 1503 1502 1500 1499 1498 1497 1496 1495 1494 1492 1491 1490 1489 1488 1487 1485 1484 1483 1482 1481 1480 1479 1478 1476 1475 1474 1473 1472 1471 1470 1468 1467 1465 1464 1463 1462 1461 1460 1459 1458 1457 1456 1455 1454 1453 1452 1451 1450 1449
1519 1519 1519 1518 1518 1517 1516 1516 1515 1514 1513 1512 1511 1510 1509 1508 1506 1505 1504 1503 1501 1500 1499 1497 1496 1495 1494 1493 1492 1490 1490 1488 1487 1486 1485 1484 1482 1481 1480 1479 1478 1477 1476 1475 1473 1472 1471 1470 1468 1467 1466 1465 1463 1462 1461 1460 1459 1458 1457 1456 1455 1454 1453 1452 1451 1450 1449 1448 1447
1518 1518 1517 1517 1516 1515 1515 1514 1513 1512 1512 1510 1510 1509 1507 1506 1505 1504 1502 1501 1500 1498 1497 1495 1494 1493 1492 1491 1490 1489 1488 1486 1485 1484 1483 1482 1480 1479 1478 1477 1476 1475 1474 1472 1471 1470 1469 1467 1466 1465 1463 1462 1461 1460 1459 1457 1456 1455 1454 1453 1452 1451 1450 1450 1448 1447 1446 1445 1445
1517 1516 1516 1515 1515 1514 1513 1513 1512 1511 1510 1509 1508 1507 1506 1505 1503 1502 1500 1499 1498 1496 1495 1494 1492 1491 1490 1489 1488 1487 1485 1485 1483 1482 1481 1480 1479 1477 1476 1475 1474 1473 1471 1470 1469 1468 1466 1465 1464 1462 1461 1460 1459 1457 1456 1455 1454 1453 1452 1451 1450 1449 1448 1447 1446 1445 1444 1443 1443
1515 1515 1514 1514 1513 1512 1512 1511 1510 1509 1508 1507 1506 1505 1504 1503 1501 1500 1499 1497 1496 1495 1493 1492 1491 1490 1488 1487 1486 1485 1484 1482 1481 1480 1479 1478 1477 1475 1475 1473 1472 1471 1470 1468 1467 1465 1464 1463 1461 1460 1459 1457 1456 1455 1454 1452 1451 1450 1449 1448 1447 1447 1446 1445 1444 1443 1442 1441 1440
1514 1513 1513 1512 1512 1511 1510 1509 1508 1507 1506 1505 1504 1503 1502 1501 1500 1498 1497 1495 1494 1493 1492 1490 1489 1488 1486 1485 1484 1483 1481 1480 1479 1478 1477 1476 1475 1474 1473 1471 1470 1469 1467 1466 1465 1463 1462 1460 1459 1457 1456 1455 1453 1452 1451 1450 1449 1448 1447 1446 1445 1444 1443 1443 1442 1441 1440 1439 1439
1512 1512 1511 1511 1510 1509 1509 1508 1507 1506 1505 1504 1503 1501 1500 1499 1498 1496 1495 1494 1492 1491 1490 1489 1487 1486 1485 1483 1482 1481 1480 1478 1477 1476 1475 1474 1473 1472 1471 1470 1468 1467 1465 1464 1463 1461 1460 1458 1456 1455 1454 1453 1452 1451 1450 1449 1448 1447 1445 1445 1443 1442 1441 1440 1440 1439 1438 1437 1436
1511 1510 1510 1509 1509 1508 1507 1506 1505 1504 1503 1502 1501 1500 1498 1497 1495 1494 1493 1492 1490 1489 1488 1487 1485 1484 1483 1481 1480 1479 1478 1476 1475 1474 1473 1472 1471 1470 1469 1467 1466 1465 1464 1462 1461 1459 1458 1456 1455 1454 1452 1451 1450 1449 1448 1447 1446 1445 1444 1443 1442 1440 1439 1438 1438 1437 1436 1435 1434
1510 1509 1508 1508 1507 1506 1505 1504 1503 1502 1501 1500 1499 1498 1496 1495 1494 1492 1491 1490 1489 1487 1486 1485 1483 1482 1481 1480 1478 1477 1476 1475 1474 1472 1471 1470 1469 1468 1466 1465 1464 1463 1461 1460 1459 1457 1456 1455 1454 1452 1451 1450 1448 1447 1446 1445 1444 1443 1442 1441 1440 1439 1437 1436 1435 1435 1434 1433 1432
1508 1507 1507 1506 1505 1504 1503 1502 1501 1500 1499 1498 1497 1495 1494 1493 1492 1490 1489 1488 1486 1485 1484 1483 1481 1480 1479 1477 1476 1475 1474 1473 1472 1470 1469 1468 1466 1465 1464 1463 1462 1460 1459 1458 1457 1455 1454 1453 1452 1451 1450 1448 1447 1445 1444 1443 1442 1441 1440 1439 1438 1437 1436 1435 1433 1432 1431 1430 1429
1506 1506 1505 1505 1504 1503 1501 1500 1500 1498 1497 1496 1495 1494 1492 1491 1490 1488 1487 1485 1484 1483 1482 1480 1479 1478 1477 1475 1474 1473 1472 1471 1470 1469 1467 1466 1465 1463 1462 1461 1460 1459 1457 1456 1455 1453 1452 1451 1450 1449 1448 1446 1445 1444 1443 1441 1440 1439 1438 1437 1436 1435 1434 1432 1431 1430 1429 1428 1426
1505 1504 1504 1503 1502 1501 1500 1499 1498 1496 1495 1494 1493 1491 1490 1489 1488 1486 1485 1484 1482 1481 1480 1478 1477 1476 1475 1474 1472 1471 1470 1469 1468 1466 1465 1464 1462 1461 1460 1459 1458 1456 1455 1454 1453 1451 1450 1449 1448 1446 1446 1445 1444 1442 1441 1440 1438 1437 1436 1435 1434 1433 1432 1430 1429 1428 1426 1425 1424
1503 1503 1502 1501 1500 1499 1498 1497 1496 1495 1493 1492 1491 1490 1488 1487 1485 1484 1483 1481 1480 1479 1478 1476 1475 1474 1473 1472 1470 1469 1468 1467 1466 1465 1463 1462 1460 1459 1458 1457 1455 1454 1453 1452 1450 1449 1448 1446 1445 1445 1444 1443 1442 1440 1439 1438 1437 1435 1434 1433 1432 1430 1430 1428 1427 1426 1424 1423 1422
1502 1501 1500 1499 1499 1497 1496 1495 1494 1493 1491 1490 1489 1488 1486 1485 1484 1482 1481 1479 1478 1477 1475 1474 1473 1472 1471 1470 1469 1467 1466 1465 1464 1463 1461 1460 1458 1457 1456 1455 1454 1452 1451 1450 1448 1447 1446 1445 1444 1443 1442 1441 1440 1439 1437 1436 1435 1433 1432 1431 1430 1428 1427 1426 1425 1423 1422 1421 1420
1500 1499 1498 1498 1497 1495 1495 1493 1492 1491 1490 1488 1487 1485 1484 1483 1482 1480 1479 1477 1476 1475 1473 1472 1471 1470 1469 1468 1467 1465 1464 1463 1462 1460 1459 1458 1456 1455 1454 1452 1451 1450 1449 1448 1446 1445 1444 1443 1441 1440 1440 1439 1438 1436 1435 1434 1432 1431 1430 1428 1427 1426 1425 1424 1422 1421 1420 1419 1418
1498 1497 1496 1496 1495 1494 1492 1491 1490 1489 1487 1486 1485 1484 1482 1481 1480 1478 1477 1475 1474 1473 1471 1470 1469 1468 1467 1466 1465 1463 1462 1461 1460 1459 1457 1456 1454 1453 1451 1450 1449 1448 1447 1446 1445 1443 1442 1440 1440 1438 1437 1436 1435 1434 1433 1431 1430 1429 1427 1426 1425 1424 1423 1421 1420 1419 1418 1417 1416
1496 1495 1495 1494 1493 1492 1490 1489 1488 1487 1485 1484 1483 1481 1480 1479 1477 1476 1475 1474 1472 1471 1470 1469 1468 1466 1465 1464 1463 1461 1460 1459 1458 1456 1455 1454 1452 1451 1450 1448 1447 1446 1445 1444 1442 1441 1440 1439 1437 1436 1435 1434 1433 1432 1430 1429 1427 1426 1425 1423 1422 1421 1420 1419 1418 1417 1416 1415 1414
1495 1494 1493 1492 1491 1490 1488 1487 1486 1485 1483 1482 1481 1480 1478 1477 1475 1474 1473 1471 1470 1469 1468 1467 1466 1465 1463 1462 1461 1460 1458 1457 1455 1454 1453 1452 1450 1449 1447 1446 1445 1444 1443 1442 1440 1439 1438 1436 1435 1434 1433 1432 1430 1429 1428 1426 1425 1423 1422 1421 1420 1419 1418 1417 1416 1415 1414 1413 1412
1493 1492 1491 1490 1489 1487 1486 1485 1484 1482 1481 1480 1479 1477 1476 1475 1473 1472 1471 1470 1468 1467 1466 1465 1464 1463 1461 1460 1459 1458 1456 1455 1453 1452 1451 1450 1448 1447 1445 1444 1443 1442 1441 1440 1439 1437 1436 1434 1433 1432 1431 1430 1428 1427 1425 1424 1422 1421 1420 1418 1417 1416 1415 1415 1414 1413 1412 1411 1410
1491 1490 1489 1487 1486 1485 1484 1483 1481 1480 1479 1478 1476 1475 1474 1473 1471 1470 1469 1468 1466 1465 1464 1463 1461 1460 1459 1458 1457 1455 1454 1453 1452 1450 1449 1447 1446 1445 1443 1441 1440 1440 1439 1438 1436 1435 1434 1432 1431 1430 1429 1427 1426 1424 1423 1422 1420 1419 1417 1416 1415 1414 1413 1412 1411 1410 1410 1409 1408
1489 1488 1486 1485 1484 1483 1482 1481 1479 1478 1477 1476 1475 1473 1472 1470 1469 1468 1467 1466 1464 1463 1461 1460 1459 1458 1457 1456 1455 1453 1452 1451 1450 1448 1447 1445 1444 1443 1441 1439 1438 1437 1436 1435 1434 1433 1432 1430 1429 1428 1427 1425 1424 1422 1421 1420 1418 1417 1415 1414 1413 1412 1411 1410 1409 1408 1407 1406 1406
1487 1486 1485 1483 1482 1481 1480 1479 1477 1476 1475 1474 1472 1471 1470 1469 1467 1466 1465 1464 1462 1461 1460 1458 1457 1456 1455 1454 1452 1451 1450 1449 1448 1447 1445 1443 1442 1441 1439 1437 1436 1435 1434 1434 1432 1431 1430 1428 1427 1426 1425 1424 1422 1421 1419 1418 1416 1415 1414 1412 1411 1410 1409 1408 1407 1406 1405 1405 1404
1485 1484 1482 1481 1480 1479 1478 1476 1475 1474 1473 1471 1470 1469 1468 1466 1465 1464 1463 1462 1460 1459 1458 1456 1455 1454 1453 1452 1450 1449 1448 1447 1446 1445 1443 1442 1440 1439 1437 1436 1434 1433 1432 1431 1430 1429 1427 1426 1425 1424 1423 1422 1420 1419 1418 1416 1415 1413 1412 1410 1409 1408 1406 1405 1405 1404 1403 1402 1402
1483 1481 1480 1479 1478 1477 1475 1474 1473 1472 1471 1470 1468 1467 1466 1465 1463 1462 1461 1460 1458 1457 1456 1455 1453 1452 1451 1450 1448 1447 1445 1444 1444 1443 1441 1440 1438 1437 1435 1434 1432 1431 1430 1429 1428 1427 1425 1424 1423 1422 1421 1420 1419 1418 1416 1415 1413 1411 1410 1409 1408 1406 1405 1403 1402 1402 1401 1400 1400